Meteo Giornale » Osservazioni meteo Stati Uniti (USA) » Los Angeles

ore: 10:53 - Osservazioni Meteo Los Angeles
Lat. 33° 56' N Lon. 118° 23' W Alt. 38 metri s.l.m.

nuvoloso America/Los_Angeles

22 °C

Nuvoloso

Temp. 24 Ore

18 °C

24 °C

Ovest

14.8 Km/h

Dew point 17 °C

Umidità 73 %

Visibilità  14 Km

Il sole sorge alle ore 06:17

Il sole tramonta alle ore 19:37

Data e Ora Cielo e Fenomeni T °C DP °C Um. % Pres. hPa Vis. km Vento km/h
Oggi h: 10:53 nuvoloso Nuvoloso 22 17 73 1016 14 O 14.8
Oggi h: 09:53 nuvoloso Nuvoloso 22 17 73 1016 13 O 13
Oggi h: 09:13 nuvoloso Nuvoloso 21 17 77 1016 13 N 5.5
Oggi h: 08:53 molto_nuvoloso Molto Nuvoloso 21 17 77 1016 13 O 7.4
Oggi h: 08:48 molto_nuvoloso Molto Nuvoloso 21 17 77 1016 13 SO 7.4
Oggi h: 08:10 molto_nuvoloso Molto Nuvoloso 19 17 88 1016 13 N 0
Oggi h: 07:53 nuvoloso Nuvoloso 20 17 82 1016 13 O 7.4
Oggi h: 06:53 nuvoloso Nuvoloso 19 17 88 1016 13 S 9.3
Oggi h: 06:47 nuvoloso Nuvoloso 19 17 88 1016 13 S 9.3
Oggi h: 05:53 molto_nuvoloso Molto Nuvoloso 19 17 88 1015 13 S/SO 9.3
Oggi h: 04:53 molto_nuvoloso Molto Nuvoloso 19 17 88 1015 10 N 5.5
Oggi h: 04:11 molto_nuvoloso Molto Nuvoloso 18 17 93 1015 10 S 9.3
Oggi h: 03:53 poco_nuvoloso Poco Nuvoloso 19 17 88 1015 10 S/SO 9.3
Oggi h: 02:53 poco_nuvoloso Poco Nuvoloso 19 17 88 1015 10 S 9.3
Oggi h: 01:53 poco_nuvoloso Poco Nuvoloso 18 17 93 1015 10 O/SO 9.3
Oggi h: 00:53 poco_nuvoloso Poco Nuvoloso 18 17 93 1015 10 O 11.1
Ieri h: 23:53 poco_nuvoloso Poco Nuvoloso 19 17 88 1015 10 O 14.8
Ieri h: 22:53 poco_nuvoloso Poco Nuvoloso 19 16 82 1015 10 O 14.8
Ieri h: 21:53 poco_nuvoloso Poco Nuvoloso 19 17 88 1016 10 O 16.7
Ieri h: 20:53 poco_nuvoloso Poco Nuvoloso 19 17 88 1015 10 O 18.5
Ieri h: 19:53 nuvoloso Nuvoloso 19 17 88 1015 10 O 20.3
Ieri h: 18:53 poco_nuvoloso Poco Nuvoloso 21 17 77 1014 10 O 24
Ieri h: 17:53 poco_nuvoloso Poco Nuvoloso 22 17 73 1014 10 O 24
Ieri h: 16:53 poco_nuvoloso Poco Nuvoloso 22 17 73 1014 10 O 24
Ieri h: 15:53 poco_nuvoloso Poco Nuvoloso 23 17 68 1015 10 O/SO 24
Ieri h: 14:53 poco_nuvoloso Poco Nuvoloso 23 17 68 1015 10 O 25.9
Ieri h: 13:53 poco_nuvoloso Poco Nuvoloso 24 17 64 1015 14 O 24
Ieri h: 12:53 poco_nuvoloso Poco Nuvoloso 23 17 68 1016 14 O/SO 16.7
Ieri h: 11:53 poco_nuvoloso Poco Nuvoloso 23 17 68 1016 14 O 16.7